www.pogodaiklimat.ru

Погода и климат >> Архив погоды >> Аргентина >> Гуалегуайчу


ПОГОДА в Гуалегуайчу

  • Прогноз погоды в Гуалегуайчу
  • Монитор погоды в Гуалегуайчу

АРХИВ ПОГОДЫ в Гуалегуайчу

Время (UTC), дата Ветер
(напр.,м/с)
 
Видим.   Явления Облачность Т
(С)
Тd
(С)
f
(%)
Тe
(С)
Тes
(С)
Комфортность P
(гПа)
Po
(гПа)
Тmin
(С)
Tmax
(С)
R
(мм)
R24
(мм)
S
(см)
09 19.03 Ю 2 9000 м дымка 10/10 180 м
[St]
+19.3 +19.3 100 +22 +22 комфорт 1010.6 1008.1
12 19.03 Ю 2 9000 м дымка 10/10 240 м
[St]
+20.2 +19.3 95 +24 +24 комфорт 1012.2 1009.7 +19.3 +22.0
15 19.03 Ю 4 15 км 10/10 540 м
[Sc]
+23.0 +18.6 76 +29 +29 очень
душно
1013.7 1011.2
18 19.03 Ю 5 7000 м морось 10/10 240 м
[St]
+18.1 +16.8 92 +18 +18 1014.3 1011.8 0.7
21 19.03 Ю 5 15 км {морось} 10/0
[Ac As]
+16.4 +13.6 84 +16 +16 1014.5 1012.0
00 20.03 Ю 2 15 км {дождь, морось} 9/0
[Ac As]
+14.2 +12.8 91 +14 +14 1016.1 1013.6 +13.6 +23.0 4
09 20.03 Ю 2 15 км 3/3 450 м
[Sc]
+13.2 +12.5 96 +13 +13 1019.9 1017.4
12 20.03 В 3 15 км 1/1 450 м
[Sc]
+17.0 +13.9 82 +17 +20 1021.1 1018.6 +12.4 +17.0 5
15 20.03 Ю 3 15 км 8/8 450 м
[Sc]
+18.7 +10.0 57 +19 +22 1021.8 1019.3
18 20.03 Ю 3 15 км 6/6 600 м
[Cu hum]
+20.9 +9.9 49 +23 +27 комфорт 1020.7 1018.2
21 20.03 ЮЗ 2 15 км 4/4 600 м
[Cu hum]
+19.4 +10.6 57 +21 +22 комфорт 1020.8 1018.2
00 21.03 штиль 0 15 км ясно +14.0 +11.0 82 +14 +14 1021.5 1019.0 +14.0 +20.9
09 21.03 ЮВ 1 8000 м дымка ясно +9.6 +8.8 95 +9 +9 1021.5 1018.9
12 21.03 В 2 15 км ясно +14.4 +11.4 82 +14 +18 1022.2 1019.7 +9.6 +14.4
15 21.03 В 3 15 км 6/6 750 м
[Sc]
+18.0 +9.1 56 +18 +24 1022.0 1019.4
18 21.03 В 2 15 км 8/6 900 м
[Cu hum Ci fib]
+19.6 +9.8 53 +21 +25 комфорт 1020.4 1017.8
21 21.03 В 2 15 км 5/3 750 м
[Sc Ci sp]
+19.4 +9.8 54 +21 +21 комфорт 1018.6 1016.1
00 22.03 штиль 0 15 км 6/1 750 м
[Sc Cs]
+14.6 +12.0 84 +14 +14 1018.9 1016.4 +14.4 +20.4
09 22.03 штиль 0 15 км 8/0
[Cs]
+10.9 +10.3 96 +10 +10 1018.5 1016.0
12 22.03 В 2 15 км 5/0
[Ac und]
+13.6 +11.2 85 +13 +15 1019.6 1017.0 +8.5 +14.6
15 22.03 СВ 2 15 км 5/1 900 м
[Cu hum Ac As]
+21.1 +10.6 51 +23 +32 комфорт 1018.6 1016.1
18 22.03 З 2 15 км 3/3 900 м
[Cu hum]
+22.6 +10.8 47 +25 +32 комфорт 1016.9 1014.4
21 22.03 штиль 0 15 км 1/1 900 м
[Cu hum]
+22.6 +11.9 51 +25 +26 комфорт 1015.8 1013.3
00 23.03 Ю 1 15 км ясно +17.3 +12.1 71 +18 +18 1016.6 1014.1 +13.6 +23.4
09 23.03 штиль 0 15 км ясно +10.2 +9.2 94 +9 +9 1015.8 1013.3
12 23.03 В 2 15 км 1/0
[Ci fib]
+15.4 +13.5 88 +16 +20 1016.4 1014.0 +10.0 +17.3
15 23.03 В 3 15 км 4/0
[Cs]
+23.6 +13.0 51 +26 +36 жарко 1015.8 1013.3
18 23.03 СЗ 3 15 км 4/1 900 м
[Sc Cs]
+25.9 +13.9 47 +28 +35 жарко 1013.6 1011.2
21 23.03 СЗ 2 15 км 4/0
[Cs]
+25.2 +15.4 55 +28 +29 жарко 1012.3 1009.8
00 24.03 СВ 2 15 км ясно +20.2 +15.7 75 +23 +23 комфорт 1012.0 1009.4 +15.4 +26.0
09 24.03 СЗ 3 15 км ясно +14.9 +13.7 93 +14 +14 1012.5 1010.1
12 24.03 З 5 15 км ясно +18.8 +17.0 89 +20 +22 1014.6 1012.1 +14.9 +20.2
15 24.03 ЮЗ 5 15 км ясно +22.0 +12.4 54 +24 +33 комфорт 1015.7 1013.3
18 24.03 ЮЗ 7 15 км 4/0
[Ci sp]
+23.0 +12.6 52 +26 +29 жарко 1015.2 1012.8
21 24.03 ЮЗ 5 15 км ясно +21.3 +12.0 55 +23 +24 комфорт 1014.7 1012.2
00 25.03 ЮЗ 2 15 км ясно +15.8 +12.6 81 +16 +16 1016.4 1013.8 +15.8 +23.0
09 25.03 ЮЗ 3 15 км 1/0
[Ci fib]
+10.4 +8.8 90 +8 +8 1012.1 1009.6
12 25.03 ЮЗ 5 15 км 3/0
[Ci fib]
+13.2 +11.1 87 +11 +13 1019.1 1016.5 +9.2 +15.8
15 25.03 Ю 3 15 км 6/4 360 м
[Sc Ci fib]
+17.9 +11.0 64 +18 +24 1018.8 1016.4
18 25.03 ЮЗ 4 15 км 4/0
[Ci fib]
+19.6 +9.8 53 +21 +27 комфорт 1018.1 1015.6
21 25.03 Ю 3 15 км 1/0
[Ci fib]
+18.3 +10.8 62 +19 +19 1018.3 1015.7
00 26.03 ЮЗ 1 15 км 6/0
[Cs]
+13.3 +10.7 84 +13 +13 1020.2 1017.7 +13.2 +20.5

 

Местоположение метеостанции Гуалегуайчу (Аргентина): широта -33.00 долгота -58.61 высота над уровнем моря 21 м.

В архиве по умолчанию представлена погода в Гуалегуайчу за последнюю неделю. Архивные данные за месяц целиком и за предыдущие месяцы, начиная с января 2011 года, Вы можете получить, выбрав интересующий диапазон дат из раскрывающегося списка и нажав кнопку "Ввод!".


*Определитесь, кто Вы:
робот инопланетянин человек

Внимание! Время в таблицах - всемирное. Для получения местного времени необходимо прибавить поправку, которая равна -3 ч.

Смотрите также архив погоды в соседних городах и на ближайших метеорологических станциях:

Погода в Мерседесе (Уругвай) (58 км)
Погода в Пайсанду (Уругвай) (92 км)
Погода в Янге (Уругвай) (98 км)
Погода в Буэнос-Айресе аэропорт (Аргентина) (174 км)
Погода в Буэнос-Айресе (Аргентина) (176 км)
Погода в Колонии (Уругвай) (177 км)
Погода в Сальто (Уругвай) (191 км)
Погода в Конкордии (Аргентина) (197 км)
Погода в Пасо-де-лос-Торосе (Уругвай) (197 км)
Погода в Дурасно (Уругвай) (200 км)

Пояснения к столбцам:

Ветер - указаны скорость ветра в м/с - средняя за 10 мин, порывы в срок и между сроками (в фигурных скобках) и направление, откуда дует ветер: С - северный, СВ - северо-восточный, В - восточный, ЮВ - юго-восточный, Ю - южный, ЮЗ - юго-западный, З - западный, СЗ - северо-западный.
Видимость - горизонтальная дальность видимости в метрах или километрах. При видимости от 1 до 10 км при отсутствии осадков обычно наблюдается дымка, при ухудшении видимости до 1 км и менее - туман. В сухую погоду видимость может ухудшаться дымом, пылью или мглою.
Явления - указаны атмосферные явления, наблюдавшиеся в срок или в последний час перед сроком; фигурными скобками обозначены явления, наблюдавшиеся между сроками (за 1-3 часа до срока); квадратными скобками обозначены град или гололедные отложения с указанием их диаметра в мм.
Облачность - указаны через наклонную черту общая и нижняя облачность в баллах и высота нижней границы облаков в метрах; квадратными скобками обозначены формы облаков: Ci - перистые, Cs - перисто-слоистые, Cc - перисто-кучевые, Ac - высококучевые, As - высокослоистые, Sc - слоисто-кучевые, Ns - слоисто-дождевые, Cu - кучевые, Cb - кучево-дождевые. Подробнее классификацию облаков см. в Атласе облаков (PDF).
T - Температура воздуха - температура, измеренная на высоте 2 м над землей.
Td - Температура точки росы - температура, при понижении до которой содержащийся в воздухе водяной пар достигнет насыщения.
f - Относительная влажность воздуха - влажноcть воздуха, измеренная на высоте 2 м над землей.
Te - Эффективная температура - температура, которую ощущает одетый по сезону человек в тени. Характеристика душности погоды. При расчете учитывается влияние влажности воздуха и скорости ветра на теплоощущения человека.
Tes - Эффективная температура на солнце - температура, которую ощущает человек, с поправкой на солнечный нагрев. Характеристика знойности погоды. Зависит от высоты солнца над горизонтом, облачности и скорости ветра. Ночью, в пасмурную погоду, а также при ветре 12 м/с и более поправка равна нулю.
P - Атмосферное давление - приведенное к уровню моря атмосферное давление.
Po - Атмосферное давление - измеренное на уровне метеостанции атмосферное давление.
Tmin - Минимальная температура - минимум температуры воздуха на высоте 2 м над землей.
Tmax - Максимальная температура - максимум температуры воздуха на высоте 2 м над землей.
R - Количество осадков - Количество выпавших осадков за период времени, мм. При наведении курсора мыши на число - период времени, за который выпало указанное количество осадков.
R24 - Количество осадков - Количество выпавших осадков за 24 часа, мм.
S - Снежный покров - Высота снежного покрова, см. При наведении курсора мыши на число - состояние снежного покрова и степень покрытия местности в баллах.